Location: Brede
(50.9167°N, 0.6000°E)
Time: 18:15:15
(UTC+00:00)

Cosmos 1437 - Pass Details

Date: 08 August 2020
Orbit: 368 x 371 km, 81.2° (Epoch: 23 September)

Event Time Altitude Azimuth Distance (km) Brightness Sun altitude
Rises 00:37:04 0° 352° (N) 2,237 7.7 -22.6°
Reaches altitude 10° 00:39:07 10° 360° (N) 1,381 6.5 -22.6°
Enters shadow 00:41:19 36° 35° (NE) 609 4.0 -22.5°
